Location: Bijele Vode
(45.2833°N, 16.2000°E)
Time: 11:43:28
(UTC+00:00)

CENTAUR R/B - Pass Details

Date: 22 January 2021
Orbit: 742 x 1446 km, 63.5° (Epoch: 02 March)

Event Time Altitude Azimuth Distance (km) Brightness Sun altitude
Rises 03:51:42 0° 153° (SSE) 3,350 5.7 -26.9°
Reaches altitude 10° 03:55:46 10° 123° (ESE) 2,552 5.4 -26.2°
Maximum altitude 03:57:54 12° 101° (ESE) 2,486 5.6 -25.8°
Drops below altitude 10° 04:00:07 10° 80° (E) 2,717 5.8 -25.4°
Sets 04:04:48 0° 52° (NE) 3,858 6.3 -24.6°
